Weather History for KBGE - October, 2012

Change the Weather History Date:

Sunday, October 21, 2012

  Actual Average (KMAI) Record (KMAI)
Temperature  
Mean Temperature 65 °F 67 °F  
Max Temperature 80 °F 79 °F 89 °F (2005)
Min Temperature 50 °F 55 °F 39 °F (2011)
Degree Days  
Heating Degree Days 0    
Month to date heating degree days  
Since 1 July heating degree days  
Cooling Degree Days 0    
Month to date cooling degree days  
Year to date cooling degree days  
Growing Degree Days 15 (Base 50)    
Moisture  
Dew Point 51 °F    
Average Humidity 68    
Maximum Humidity 100    
Minimum Humidity 30    
Precipitation  
Precipitation 0.00 in 0.11 in 0.13 in (2002)
Month to date precipitation 2.24  
Year to date precipitation 44.37  
Sea Level Pressure  
Sea Level Pressure 30.08 in    
Wind  
Wind Speed 2 mph (NNE)    
Max Wind Speed 10 mph    
Max Gust Speed -    
Visibility 10 miles    
Events      
T = Trace of Precipitation, MM = Missing Value Source: NWS Daily Summary

Daily Weather History Graph

Daily Weather History Graph

Search for Another Location

Airport or City:

Trip Planner

Search our weather history database for the weather conditions in past years. The results will help you decide how hot, cold, wet, or windy it might be!

Date:

Astronomy

Oct. 21, 2012 Rise Set
Actual Time 7:45 AM EDT 6:59 PM EDT
Civil Twilight 7:21 AM EDT 7:24 PM EDT
Nautical Twilight 6:52 AM EDT 7:52 PM EDT
Astronomical Twilight 6:24 AM EDT 8:20 PM EDT
Moon 1:58 PM EDT (10/21) No Moon Set
Length of Visible Light 12h 03m
Length of Day
11h 14m
Waxing Crescent, 45% of the Moon is Illuminated
Oct 21
Waxing Crescent
Oct 21
First Quarter
Oct 29
Full
Nov 6
Last Quarter
Nov 13
New

Hourly Weather History & Observations

Time (EDT) Temp. Dew Point Humidity Pressure Visibility Wind Dir Wind Speed Gust Speed Precip Events Conditions
12:35 AM 53.6 °F 51.8 °F 94% 30.01 in 10.0 mi Calm Calm - N/A   Clear
12:55 AM 53.6 °F 50.0 °F 88% 30.00 in 10.0 mi Calm Calm - N/A   Clear
1:35 AM 51.8 °F 50.0 °F 94% 30.00 in 10.0 mi Calm Calm - N/A   Clear
1:55 AM 51.8 °F 50.0 °F 94% 30.00 in 10.0 mi Calm Calm - N/A   Clear
2:15 AM 51.8 °F 50.0 °F 94% 30.01 in 10.0 mi Calm Calm - N/A   Clear
2:35 AM 51.8 °F 50.0 °F 94% 30.01 in 10.0 mi Calm Calm - N/A   Clear
3:15 AM 51.8 °F 50.0 °F 94% 30.02 in 10.0 mi Calm Calm - N/A   Clear
3:35 AM 51.8 °F 50.0 °F 94% 30.02 in 10.0 mi Calm Calm - N/A   Clear
4:15 AM 51.8 °F 50.0 °F 94% 30.02 in 10.0 mi Calm Calm - N/A   Clear
4:35 AM 51.8 °F 50.0 °F 94% 30.03 in 10.0 mi Calm Calm - N/A   Clear
4:55 AM 51.8 °F 50.0 °F 94% 30.03 in 10.0 mi Calm Calm - N/A   Clear
5:15 AM 51.8 °F 50.0 °F 94% 30.03 in 10.0 mi Calm Calm - N/A   Clear
5:35 AM 51.8 °F 50.0 °F 94% 30.05 in 10.0 mi Calm Calm - N/A   Clear
6:15 AM 50.0 °F 46.4 °F 87% 30.06 in 10.0 mi Calm Calm - N/A   Clear
6:35 AM 50.0 °F 48.2 °F 94% 30.07 in 10.0 mi Calm Calm - N/A   Clear
6:55 AM 50.0 °F 48.2 °F 94% 30.07 in 10.0 mi Calm Calm - N/A   Clear
7:15 AM 50.0 °F 48.2 °F 94% 30.08 in 10.0 mi Calm Calm - N/A   Clear
7:35 AM 50.0 °F 46.4 °F 87% 30.08 in 10.0 mi Calm Calm - N/A   Clear
7:55 AM 50.0 °F 46.4 °F 87% 30.09 in 10.0 mi Calm Calm - N/A   Clear
8:15 AM 50.0 °F 48.2 °F 94% 30.10 in 10.0 mi Calm Calm - N/A   Clear
8:35 AM 51.8 °F 51.8 °F 100% 30.10 in 10.0 mi Calm Calm - N/A   Clear
8:55 AM 53.6 °F 51.8 °F 94% 30.11 in 10.0 mi Calm Calm - N/A   Clear
9:15 AM 57.2 °F 53.6 °F 88% 30.12 in 10.0 mi ENE 3.5 mph - N/A   Clear
9:55 AM 59.0 °F 51.8 °F 77% 30.13 in 10.0 mi ENE 5.8 mph - N/A   Clear
10:15 AM 62.6 °F 53.6 °F 72% 30.13 in 10.0 mi NE 5.8 mph - N/A   Clear
10:35 AM 64.4 °F 53.6 °F 68% 30.13 in 10.0 mi NE 6.9 mph - N/A   Clear
10:55 AM 68.0 °F 53.6 °F 60% 30.13 in 10.0 mi NE 5.8 mph - N/A   Clear
11:15 AM 69.8 °F 53.6 °F 56% 30.13 in 10.0 mi NE 9.2 mph - N/A   Clear
11:35 AM 71.6 °F 53.6 °F 53% 30.13 in 10.0 mi NE 6.9 mph - N/A   Clear
11:55 AM 71.6 °F 51.8 °F 50% 30.13 in 10.0 mi NNE 9.2 mph - N/A   Clear
12:15 PM 71.6 °F 51.8 °F 50% 30.12 in 10.0 mi NE 5.8 mph - N/A   Clear
12:35 PM 73.4 °F 50.0 °F 44% 30.12 in 10.0 mi NNE 5.8 mph - N/A   Clear
12:55 PM 73.4 °F 51.8 °F 47% 30.11 in 10.0 mi North 5.8 mph - N/A   Clear
1:15 PM 75.2 °F 51.8 °F 44% 30.11 in 10.0 mi NE 8.1 mph - N/A   Clear
1:35 PM 77.0 °F 51.8 °F 41% 30.11 in 10.0 mi NNE 3.5 mph - N/A   Clear
1:55 PM 77.0 °F 50.0 °F 39% 30.10 in 10.0 mi North 5.8 mph - N/A   Clear
2:15 PM 77.0 °F 50.0 °F 39% 30.09 in 10.0 mi NNE 5.8 mph - N/A   Clear
2:35 PM 77.0 °F 48.2 °F 36% 30.08 in 10.0 mi NE 5.8 mph - N/A   Clear
2:55 PM 78.8 °F 50.0 °F 36% 30.08 in 10.0 mi North 6.9 mph - N/A   Clear
3:15 PM 78.8 °F 48.2 °F 34% 30.07 in 10.0 mi NNE 6.9 mph - N/A   Clear
3:35 PM 80.6 °F 50.0 °F 34% 30.07 in 10.0 mi North 5.8 mph - N/A   Clear
3:55 PM 80.6 °F 48.2 °F 32% 30.06 in 10.0 mi NNE 9.2 mph - N/A   Clear
4:15 PM 80.6 °F 48.2 °F 32% 30.06 in 10.0 mi NNW 8.1 mph - N/A   Clear
4:35 PM 80.6 °F 46.4 °F 30% 30.06 in 10.0 mi NNE 10.4 mph - N/A   Clear
4:55 PM 80.6 °F 48.2 °F 32% 30.05 in 10.0 mi NNE 8.1 mph - N/A   Clear
5:15 PM 80.6 °F 46.4 °F 30% 30.06 in 10.0 mi NNE 8.1 mph - N/A   Clear
5:55 PM 78.8 °F 48.2 °F 34% 30.06 in 10.0 mi NNE 8.1 mph - N/A   Clear
6:15 PM 77.0 °F 46.4 °F 34% 30.06 in 10.0 mi NNE 5.8 mph - N/A   Clear
6:35 PM 77.0 °F 50.0 °F 39% 30.06 in 10.0 mi NNE 3.5 mph - N/A   Clear
6:55 PM 73.4 °F 50.0 °F 44% 30.06 in 10.0 mi NNE 3.5 mph - N/A   Clear
7:15 PM 73.4 °F 50.0 °F 44% 30.07 in 10.0 mi North 3.5 mph - N/A   Clear
7:35 PM 71.6 °F 51.8 °F 50% 30.07 in 10.0 mi Calm Calm - N/A   Clear
7:55 PM 68.0 °F 53.6 °F 60% 30.08 in 10.0 mi Calm Calm - N/A   Clear
8:15 PM 64.4 °F 53.6 °F 68% 30.08 in 10.0 mi Calm Calm - N/A   Clear
8:35 PM 64.4 °F 51.8 °F 64% 30.09 in 10.0 mi Calm Calm - N/A   Clear
8:55 PM 62.6 °F 53.6 °F 72% 30.09 in 10.0 mi Calm Calm - N/A   Clear
9:15 PM 62.6 °F 55.4 °F 77% 30.09 in 10.0 mi Calm Calm - N/A   Clear
9:35 PM 62.6 °F 53.6 °F 72% 30.10 in 10.0 mi Calm Calm - N/A   Clear
9:55 PM 60.8 °F 53.6 °F 77% 30.11 in 10.0 mi Calm Calm - N/A   Clear
10:15 PM 60.8 °F 51.8 °F 72% 30.11 in 10.0 mi Calm Calm - N/A   Clear
10:35 PM 59.0 °F 51.8 °F 77% 30.11 in 10.0 mi Calm Calm - N/A   Clear
10:55 PM 57.2 °F 53.6 °F 88% 30.11 in 10.0 mi ESE 4.6 mph - N/A   Clear
11:15 PM 57.2 °F 53.6 °F 88% 30.12 in 10.0 mi Calm Calm - N/A   Clear
11:35 PM 59.0 °F 53.6 °F 82% 30.12 in 10.0 mi Calm Calm - N/A   Clear
11:55 PM 59.0 °F 53.6 °F 82% 30.12 in 10.0 mi Calm Calm - N/A   Clear